KD5HIA Weather Reports


Display with metric or nautical units.
time (UTC)temp
F
wind
direction
speed
MPH
gust
MPH
rain 1hr
in
rain 24hr
in
rain mn
in
humidity
%
barometer
mb
20260510101518 71 203 11.0 19.0 0.00 0.00 0.00 77 1010.7
20260510100517 71 203 10.0 14.0 0.00 0.00 0.00 76 1010.7
20260510095517 72 180 9.0 14.0 0.00 0.00 0.00 75 1010.7
20260510094518 72 203 7.0 11.0 0.00 0.00 0.00 75 1010.8
20260510093517 72 203 10.0 16.0 0.00 0.00 0.00 75 1010.7
20260510092517 71 180 5.0 9.0 0.00 0.00 0.00 75 1010.4
20260510091517 72 203 10.0 14.0 0.00 0.00 0.00 75 1010.3
20260510090517 72 203 9.0 15.0 0.00 0.00 0.00 75 1010.3
20260510085517 72 203 10.0 16.0 0.00 0.00 0.00 75 1010.3
20260510084517 72 180 9.0 17.0 0.00 0.00 0.00 74 1010.4
20260510083518 72 203 10.0 17.0 0.00 0.00 0.00 74 1010.4
20260510083017 72 203 10.0 16.0 0.00 0.00 0.00 74 1010.2
20260510082017 72 203 10.0 13.0 0.00 0.00 0.00 74 1010.2
20260510081017 72 203 9.0 11.0 0.00 0.00 0.00 73 1010.4
20260510080017 72 180 7.0 11.0 0.00 0.00 0.00 74 1010.5
20260510075018 71 180 6.0 11.0 0.00 0.00 0.00 75 1010.5
20260510074017 69 180 5.0 10.0 0.00 0.00 0.00 77 1010.4
20260510073017 67 180 3.0 6.0 0.00 0.00 0.00 79 1010.2
20260510072017 67 158 4.0 5.0 0.00 0.00 0.00 80 1010.2
20260510071017 67 180 3.0 4.0 0.00 0.00 0.00 79 1010.3
20260510070017 68 180 3.0 7.0 0.00 0.00 0.00 77 1010.2
20260510065018 69 203 5.0 7.0 0.00 0.00 0.00 77 1010.2
20260510064018 69 180 3.0 5.0 0.00 0.00 0.00 77 1010.5
20260510063017 69 180 3.0 5.0 0.00 0.00 0.00 77 1010.6
20260510062017 69 180 3.0 7.0 0.00 0.00 0.00 76 1010.6
20260510061018 70 180 3.0 6.0 0.00 0.00 0.00 76 1010.7
20260510060017 70 180 3.0 6.0 0.00 0.00 0.00 76 1010.6
20260510055017 70 180 4.0 7.0 0.00 0.00 0.00 75 1010.7
20260510054017 70 180 6.0 8.0 0.00 0.00 0.00 75 1010.6
20260510053017 70 203 6.0 8.0 0.00 0.00 0.00 75 1010.4
20260510052017 70 180 5.0 9.0 0.00 0.00 0.00 75 1010.5
20260510051017 70 180 4.0 6.0 0.00 0.00 0.00 75 1010.5
20260510050017 71 180 4.0 7.0 0.00 0.00 0.00 74 1010.5
20260510045018 71 203 6.0 8.0 0.00 0.00 0.00 73 1010.6
20260510044018 72 180 3.0 6.0 0.00 0.00 0.00 72 1010.7
20260510043017 72 180 4.0 6.0 0.00 0.00 0.00 72 1010.4
20260510042017 72 180 4.0 6.0 0.00 0.00 0.00 73 1010.5
20260510041017 72 180 3.0 5.0 0.00 0.00 0.00 73 1010.4
20260510040018 72 203 4.0 7.0 0.00 0.00 0.00 72 1010.4
20260510035017 73 203 3.0 5.0 0.00 0.00 0.00 70 1010.3
20260510034017 73 180 2.0 4.0 0.00 0.00 0.00 68 1010.3
20260510033017 74 180 2.0 4.0 0.00 0.00 0.00 67 1010.2
20260510032017 75 180 3.0 4.0 0.00 0.00 0.00 65 1010.2
20260510031018 76 180 3.0 5.0 0.00 0.00 0.00 64 1010.3
20260510030018 76 180 3.0 5.0 0.00 0.00 0.00 64 1010.0
20260510025018 77 180 3.0 5.0 0.00 0.00 0.00 62 1010.0
20260510024017 77 158 4.0 6.0 0.00 0.00 0.00 61 1009.8
20260510023017 78 158 4.0 6.0 0.00 0.00 0.00 59 1009.7
20260510022017 79 158 5.0 8.0 0.00 0.00 0.00 57 1009.7
20260510021018 80 158 5.0 7.0 0.00 0.00 0.00 55 1009.5
20260510020017 81 158 5.0 7.0 0.00 0.00 0.00 54 1009.4
20260510015017 81 158 4.0 6.0 0.00 0.00 0.00 51 1009.3
20260510014017 83 158 4.0 6.0 0.00 0.00 0.00 48 1009.3
20260510013017 84 135 3.0 4.0 0.00 0.00 0.00 47 1009.2
20260510012017 85 158 3.0 4.0 0.00 0.00 0.00 44 1009.1
20260510011017 86 158 3.0 5.0 0.00 0.00 0.00 42 1009.0
20260510010017 87 158 4.0 7.0 0.00 0.00 0.00 40 1008.8
20260510005017 88 158 6.0 9.0 0.00 0.00 0.00 39 1008.9
20260510004017 89 180 4.0 6.0 0.00 0.00 0.00 37 1008.8
20260510003017 89 180 5.0 8.0 0.00 0.00 0.00 38 1008.8
20260510002017 89 158 5.0 9.0 0.00 0.00 0.00 38 1008.8
20260510001017 89 158 5.0 9.0 0.00 0.00 0.00 38 1008.8
20260510000018 90 158 6.0 13.0 0.00 0.00 0.00 35 1008.7
20260509235017 90 158 6.0 11.0 0.00 0.00 0.00 35 1008.7
20260509234018 89 180 6.0 12.0 0.00 0.00 0.00 37 1008.7
20260509233017 90 158 5.0 9.0 0.00 0.00 0.00 35 1008.8
20260509232017 90 158 6.0 15.0 0.00 0.00 0.00 34 1008.9
20260509231017 90 158 4.0 8.0 0.00 0.00 0.00 35 1009.0
20260509230017 90 158 4.0 7.0 0.00 0.00 0.00 34 1009.0
20260509225021 90 180 3.0 8.0 0.00 0.00 0.00 38 1009.0
20260509224021 90 203 6.0 12.0 0.00 0.00 0.00 40 1009.1
20260509223021 90 158 3.0 8.0 0.00 0.00 0.00 38 1009.0
20260509222017 90 180 5.0 9.0 0.00 0.00 0.00 37 1009.1
20260509221018 90 203 7.0 12.0 0.00 0.00 0.00 36 1009.2
20260509220017 90 180 6.0 12.0 0.00 0.00 0.00 39 1009.5
20260509215018 90 203 6.0 10.0 0.00 0.00 0.00 42 1009.5
20260509214017 90 248 5.0 8.0 0.00 0.00 0.00 42 1009.8
20260509213017 90 248 6.0 13.0 0.00 0.00 0.00 41 1009.8
20260509212018 89 203 7.0 13.0 0.00 0.00 0.00 38 1010.1
20260509211018 90 248 7.0 13.0 0.00 0.00 0.00 43 1010.2
20260509210017 89 225 4.0 11.0 0.00 0.00 0.00 46 1010.4
20260509205018 89 203 6.0 14.0 0.00 0.00 0.00 43 1010.6
20260509204017 89 225 5.0 11.0 0.00 0.00 0.00 42 1010.7
20260509203017 88 248 6.0 12.0 0.00 0.00 0.00 42 1010.8
20260509202017 88 225 6.0 13.0 0.00 0.00 0.00 45 1011.0
20260509201017 87 203 7.0 12.0 0.00 0.00 0.00 48 1010.9
20260509200017 87 203 6.0 12.0 0.00 0.00 0.00 49 1011.2
20260509195017 87 248 6.0 11.0 0.00 0.00 0.00 46 1011.2
20260509194017 87 248 4.0 10.0 0.00 0.00 0.00 47 1011.4
20260509193018 87 225 5.0 12.0 0.00 0.00 0.00 48 1011.5
20260509192018 86 203 8.0 15.0 0.00 0.00 0.00 49 1011.6
20260509191017 86 180 6.0 11.0 0.00 0.00 0.00 51 1011.8
20260509190018 86 203 6.0 12.0 0.00 0.00 0.00 52 1012.0
20260509185017 85 225 6.0 11.0 0.00 0.00 0.00 51 1012.1
20260509184017 85 180 9.0 15.0 0.00 0.00 0.00 52 1012.2
20260509183017 85 270 5.0 12.0 0.00 0.00 0.00 56 1012.3
20260509182017 83 203 4.0 10.0 0.00 0.00 0.00 58 1012.5
20260509181017 84 158 8.0 16.0 0.00 0.00 0.00 56 1012.8
20260509180017 83 180 6.0 11.0 0.00 0.00 0.00 58 1013.0
20260509175017 82 225 4.0 8.0 0.00 0.00 0.00 60 1013.2
20260509174017 82 203 4.0 9.0 0.00 0.00 0.00 61 1013.3
20260509173018 80 248 4.0 7.0 0.00 0.00 0.00 63 1013.1
20260509172018 80 225 3.0 6.0 0.00 0.00 0.00 66 1013.3
20260509171017 78 203 4.0 7.0 0.00 0.00 0.00 70 1013.2
20260509170017 77 248 4.0 8.0 0.00 0.00 0.00 71 1013.3
20260509165017 77 248 3.0 7.0 0.00 0.00 0.00 71 1013.2
20260509164017 77 225 3.0 7.0 0.00 0.00 0.00 73 1013.3
20260509163017 76 180 5.0 9.0 0.00 0.00 0.00 73 1013.3
20260509162017 75 180 5.0 10.0 0.00 0.00 0.00 74 1013.4
20260509161017 73 248 3.0 7.0 0.00 0.00 0.00 77 1013.2
20260509160017 72 203 4.0 8.0 0.00 0.00 0.00 80 1013.1
20260509155017 71 180 4.0 8.0 0.00 0.00 0.00 81 1013.3
20260509154017 70 203 6.0 9.0 0.00 0.00 0.00 82 1013.3
20260509153017 70 180 4.0 9.0 0.00 0.00 0.00 83 1013.4
20260509152018 69 180 5.0 9.0 0.00 0.00 0.00 84 1013.5
20260509151017 69 203 3.0 7.0 0.00 0.00 0.00 84 1013.6
20260509150017 69 180 4.0 7.0 0.00 0.00 0.00 84 1014.0
20260509145017 68 248 2.0 6.0 0.00 0.00 0.00 85 1013.9
20260509144017 67 180 1.0 4.0 0.00 0.00 0.00 86 1013.8
20260509143017 67 0.0 2.0 0.00 0.00 0.00 87 1013.9
20260509142018 66 158 1.0 2.0 0.00 0.00 0.00 90 1013.9
20260509141018 65 0.0 2.0 0.00 0.00 0.00 90 1013.4
20260509140017 65 0.0 2.0 0.00 0.00 0.00 90 1013.4
20260509135017 65 0.0 0.0 0.00 0.00 0.00 91 1013.3
20260509134018 65 0.0 0.0 0.00 0.00 0.00 90 1013.4
20260509133017 64 0.0 0.0 0.00 0.00 0.00 92 1013.6
20260509132017 63 0.0 0.0 0.00 0.00 0.00 94 1013.3
20260509131017 63 0.0 0.0 0.00 0.00 0.00 94 1013.2
20260509130017 62 0.0 2.0 0.00 0.00 0.00 95 1013.3
20260509125017 62 0.0 1.0 0.00 0.00 0.00 95 1013.1
20260509124017 61 0.0 0.0 0.00 0.00 0.00 95 1012.9
20260509123018 61 0.0 0.0 0.00 0.00 0.00 95 1012.7
20260509122017 60 293 1.0 2.0 0.00 0.00 0.00 94 1012.4
20260509121018 59 293 1.0 3.0 0.00 0.00 0.00 94 1012.3
20260509120018 60 270 2.0 5.0 0.00 0.00 0.00 94 1012.2
20260509115018 59 203 3.0 5.0 0.00 0.00 0.00 93 1012.1
20260509114017 60 225 3.0 8.0 0.00 0.00 0.00 93 1012.1
20260509113017 60 248 3.0 6.0 0.00 0.00 0.00 94 1012.3
20260509112017 59 248 1.0 3.0 0.00 0.00 0.00 94 1012.2
20260509111018 59 203 3.0 6.0 0.00 0.00 0.00 94 1012.2
20260509110018 60 270 2.0 4.0 0.00 0.00 0.00 94 1012.3
20260509105018 60 225 2.0 3.0 0.00 0.00 0.00 94 1012.3
20260509104017 59 158 1.0 3.0 0.00 0.00 0.00 93 1012.5
20260509103017 59 0.0 0.0 0.00 0.00 0.00 93 1012.6
20260509102017 60 135 4.0 7.0 0.00 0.00 0.00 94 1012.4